Flag for U.S.A. Weather past 2 weeks in Roanoke, Virginia, U.S.A.

Now
54 °F

Passing clouds.


Feels Like: 49 °F
Forecast: 45 / 62 °F
Wind: 18 mph from Northwest

Location: Roanoke Regional Airport

Current Time: Oct 23, 2014 at 10:57:26 AM

Latest Report: Oct 23, 2014 at 9:54 AM


Visibility: 10 mi

Pressure: 30.08 "Hg

Humidity: 55%

Dew point: 38 °F

Location of RoanokeLocation

Historic Weather in Roanoke — Graph

°F

Roanoke temperature yesterday

Maximum temperature yesterday: 60 °F (at 3:54 PM)
Minimum temperature yesterday: 48 °F (at 5:54 AM)
Average temperature yesterday: 53 °F

Past Weeks' High & Low Weather Summary

 TemperatureHumidityPressure
High78 °F (Oct 9, 3:54 PM)100% (Oct 11, 2:54 AM)30.29 "Hg (Oct 11, 2:54 AM)
Low39 °F (Oct 20, 7:54 AM)31% (Oct 8, 2:54 PM)29.73 "Hg (Oct 18, 4:54 AM)
Average58 °F72%30.01 "Hg
* Reported Oct 8 9:54 AM — Oct 23 9:54 AM, Roanoke, Weather by CustomWeather, © 2014

Note: Actual official high and low records may vary slightly from our data, if they occured in-between our weather recording intervals... More about our weather records

Advertising

Roanoke weather history for previous 24 hours

 ConditionsComfort  
Time TempWeatherWind HumidityBarometerVisibility
9:54 AM
Oct 23
54 °FPassing clouds.18 mph55%30.08 "Hg10 mi
8:54 AM51 °FScattered clouds.18 mph61%30.09 "Hg10 mi
7:54 AM48 °FPassing clouds.22 mph66%30.07 "Hg10 mi
6:54 AM49 °FPassing clouds.12 mph64%30.08 "Hg10 mi
5:54 AM48 °FPassing clouds.10 mph66%30.07 "Hg10 mi
4:54 AM49 °FPassing clouds.16 mph66%30.07 "Hg10 mi
3:54 AM48 °FPassing clouds.10 mph68%30.07 "Hg10 mi
2:54 AM49 °FPassing clouds.12 mph66%30.08 "Hg10 mi
1:54 AM49 °FClear.26 mph66%30.07 "Hg10 mi
12:54 AM50 °FClear.16 mph63%30.09 "Hg10 mi
11:54 PM
Oct 22
51 °FPassing clouds.12 mph61%30.10 "Hg10 mi
10:54 PM52 °FPassing clouds.15 mph59%30.11 "Hg10 mi
9:54 PM52 °FPassing clouds.13 mph59%30.11 "Hg10 mi
8:54 PM52 °FPassing clouds.6 mph59%30.09 "Hg10 mi
7:54 PM52 °FPassing clouds.8 mph59%30.08 "Hg10 mi
6:54 PM52 °FScattered clouds.12 mph61%30.07 "Hg10 mi
5:54 PM54 °FScattered clouds.20 mph55%30.07 "Hg10 mi
4:54 PM59 °FPartly sunny.14 mph48%30.06 "Hg10 mi
3:54 PM60 °FPartly sunny.15 mph46%30.05 "Hg10 mi
2:54 PM59 °FPartly sunny.21 mph48%30.04 "Hg10 mi
1:54 PM56 °FMore clouds than sun.15 mph53%30.06 "Hg10 mi
12:54 PM56 °FPartly sunny.14 mph53%30.07 "Hg10 mi
11:54 AM58 °FMostly cloudy.13 mph51%30.08 "Hg10 mi
10:54 AM56 °FScattered clouds.14 mph53%30.07 "Hg10 mi
Weather by CustomWeather, © 2014

See weather overviewHow to use our weather pages